Theta_e
306 306 306 308 308 307 306 305 306 307 306 306 306 305 307 310 309 314 316 311 316 314 315 316 315 316 319 320 321 320 320 321 319 319 321 321 324 335 333 332 339 355 354 349 342
305 305 307 308 308 308 306 306 306 307 307 306 306 305 307 309 311 316 310 317 318 317 316 314 312 314 312 319 320 320 317 319 319 319 318 318 320 332 334 334 337 358 353 347 347
305 305 307 308 308 308 307 306 308 309 309 308 307 306 308 309 319 319 320 313 317 319 316 315 314 314 312 314 318 320 321 319 320 320 320 320 320 321 322 335 336 337 356 353 350
305 305 306 308 308 309 308 307 310 312 313 312 311 306 309 314 323 321 319 318 317 312 314 313 312 313 315 314 316 319 321 321 320 321 320 321 320 320 320 328 335 339 348 351 348
305 305 305 307 308 308 310 311 311 312 311 312 312 309 311 320 317 318 315 314 312 312 313 312 313 314 316 316 316 318 319 320 320 319 319 320 321 319 319 321 324 326 344 347 346
304 305 306 307 308 308 308 309 311 311 311 311 312 310 313 316 318 320 313 314 314 314 317 315 316 316 317 316 315 317 318 319 318 318 319 319 320 320 320 320 322 323 328 335 343
304 305 306 306 308 308 309 308 310 311 310 311 312 309 318 316 319 318 319 323 320 317 314 316 318 316 316 315 315 316 317 317 317 318 318 319 319 319 320 320 320 320 321 328 336
303 304 305 306 307 308 308 308 309 310 310 310 309 316 318 316 321 320 319 318 317 319 319 320 320 316 316 314 316 316 316 316 317 318 319 318 318 319 319 318 319 319 320 321 327
303 304 305 306 307 308 309 309 310 313 310 309 312 320 322 321 319 320 318 317 317 317 318 320 321 319 317 315 313 315 316 316 317 318 318 318 317 318 319 319 318 318 318 319 323
303 303 305 306 307 307 308 309 313 315 317 317 318 321 322 323 320 319 318 319 318 319 319 318 315 314 313 312 315 316 316 316 317 318 318 317 318 318 319 319 319 318 318 318 319
304 304 304 305 307 307 308 310 319 321 317 324 325 322 323 322 320 319 319 318 317 319 316 315 313 312 314 315 316 317 316 316 317 318 319 318 319 317 318 319 317 318 317 318 319
307 306 304 304 307 308 308 313 315 313 312 316 320 321 322 321 319 319 319 317 317 317 317 316 313 314 315 316 317 316 316 317 318 319 319 317 318 318 319 320 319 319 319 317 319
310 310 306 304 309 311 312 316 315 314 313 315 315 315 315 316 318 319 318 318 318 317 317 316 317 318 318 317 318 317 317 317 318 317 316 317 317 317 318 319 319 319 318 319 320
310 311 308 305 313 313 315 313 313 315 314 316 317 317 316 317 319 320 319 318 318 318 318 318 318 319 318 320 319 318 318 318 318 317 315 317 316 315 317 318 318 317 317 317 317
311 309 308 305 308 313 317 313 313 316 324 321 318 319 319 318 321 320 320 320 319 319 319 320 319 319 320 320 319 319 319 318 318 317 318 317 314 315 317 317 319 319 318 319 319
311 311 307 309 313 315 314 312 314 318 323 321 319 319 318 318 319 320 320 319 319 318 318 318 319 318 319 319 319 319 319 318 317 315 317 317 317 318 316 317 318 319 325 324 320
310 312 309 309 313 314 312 313 317 320 320 321 319 319 318 318 318 319 321 319 319 318 319 319 319 318 319 319 319 318 316 320 318 316 317 316 318 317 317 319 319 320 328 327 326
310 312 313 313 311 314 312 315 319 319 320 316 315 316 316 315 315 315 316 317 317 316 318 320 320 319 316 315 314 322 323 323 320 320 319 318 319 317 324 324 326 322 325 326 325
310 311 312 316 314 312 313 315 318 316 313 313 314 316 316 315 316 316 316 316 314 314 317 319 319 315 315 312 313 318 323 323 324 323 323 321 321 321 329 329 329 326 322 319 320
306 310 315 312 311 312 313 316 316 311 311 311 313 314 315 315 315 314 315 314 313 312 311 312 312 313 312 313 312 312 313 324 324 326 326 323 323 329 331 329 328 327 325 321 320
309 315 314 313 311 313 313 315 312 310 309 309 310 310 312 311 312 313 314 312 312 310 310 310 313 311 311 312 310 310 309 312 320 323 327 326 322 330 327 325 324 323 322 321 319
307 317 315 313 313 314 314 312 309 309 309 310 309 310 311 311 312 312 312 312 309 309 309 311 310 310 310 309 310 310 309 309 316 318 319 324 324 330 326 325 323 321 320 318 317
307 314 313 312 313 313 312 312 312 310 310 309 309 310 310 310 310 311 312 310 308 308 309 308 308 306 306 307 309 309 308 309 310 314 315 317 319 327 327 325 324 323 321 318 317
308 316 314 313 312 312 312 312 311 310 309 309 308 309 310 310 309 310 309 310 308 309 309 306 306 307 307 307 307 308 309 308 308 309 311 311 311 312 326 324 322 323 321 316 318
311 314 311 312 311 311 312 311 310 310 310 309 310 310 310 310 310 310 312 311 310 309 307 306 308 309 310 310 308 309 308 308 308 307 307 307 306 306 312 323 320 319 321 319 319
312 310 309 309 312 311 311 312 313 309 307 308 308 308 310 311 312 312 311 311 311 310 310 310 310 310 311 310 308 308 308 308 308 308 307 307 305 305 306 317 316 317 316 316 313
308 307 308 310 310 311 310 309 308 307 307 308 308 309 310 310 308 307 307 308 308 308 308 311 310 310 310 308 308 308 308 308 308 307 307 308 306 307 307 307 310 311 316 314 312
Wind_Speed
28 30 29 25 23 20 18 15 13 12 13 12 12 13 14 16 17 12 8 13 7 13 16 13 13 11 15 7 10 6 4 10 9 12 19 19 6 9 4 15 11 7 18 10 35
29 31 29 26 24 21 19 15 13 12 12 11 11 11 13 15 16 15 25 11 14 10 7 8 8 10 4 5 5 5 4 9 9 15 14 16 11 10 4 7 0 17 14 26 30
30 32 29 27 25 21 18 14 12 11 11 10 10 10 10 11 5 7 5 20 19 19 16 14 19 6 8 7 8 9 10 11 15 15 12 10 17 9 8 1 7 6 21 14 13
31 33 30 26 25 22 17 14 12 11 11 10 10 10 8 4 3 1 3 11 12 9 8 7 6 5 7 9 9 8 14 16 14 16 12 13 11 11 8 3 5 5 8 13 12
31 32 32 26 24 22 18 14 12 11 11 11 11 9 3 3 10 10 9 9 8 7 11 8 7 7 8 7 9 9 10 12 13 12 12 11 12 8 9 13 6 6 12 17 15
31 31 33 27 23 21 19 16 13 12 12 12 11 6 1 6 8 12 10 10 10 10 10 13 8 11 7 9 8 9 11 12 11 12 8 9 12 6 9 11 14 6 5 8 11
32 32 32 30 23 21 19 18 15 13 13 12 8 5 5 16 7 10 11 12 8 18 9 18 22 6 7 8 10 9 9 12 12 7 7 8 12 9 8 11 14 10 5 10 10
34 35 34 32 24 21 21 19 17 13 10 6 2 3 7 16 15 23 18 12 16 19 17 17 19 8 6 8 10 8 7 6 7 10 12 4 12 11 11 9 13 12 9 8 11
36 36 35 36 27 22 23 23 21 11 7 4 3 4 8 7 11 15 15 17 19 19 17 18 11 6 7 6 6 7 8 9 10 11 10 9 11 13 13 13 10 11 10 10 8
39 39 38 37 30 23 24 23 18 8 4 4 10 5 7 6 14 17 15 14 10 5 7 6 3 6 5 3 10 8 7 9 13 13 9 12 18 15 12 16 16 13 9 12 13
41 41 41 37 30 23 24 9 2 1 5 9 8 7 10 17 12 7 8 9 10 4 7 8 4 7 11 10 11 13 10 10 9 10 3 8 8 11 17 16 9 8 9 9 17
43 42 42 39 28 20 15 3 3 8 10 13 23 25 31 29 9 7 15 8 7 8 8 7 10 12 13 14 16 17 15 11 9 13 8 9 11 10 7 6 7 8 8 10 7
46 43 43 38 26 11 9 14 13 19 5 18 23 17 20 22 13 12 11 9 9 10 12 10 11 17 17 14 13 10 8 8 8 9 10 6 10 10 9 6 7 9 8 9 8
46 46 41 37 8 16 8 12 15 13 4 9 7 6 18 10 9 17 21 10 8 14 12 11 13 18 17 14 13 10 9 10 9 8 7 4 12 9 8 11 9 9 11 10 10
47 49 42 25 16 8 16 21 12 3 5 3 6 9 6 9 2 8 7 4 6 10 9 14 12 13 16 15 14 11 10 12 10 10 3 5 4 6 8 9 11 16 15 18 17
50 44 44 9 9 14 22 17 10 1 7 5 7 6 5 9 14 4 5 5 4 7 11 14 14 13 15 20 19 15 9 11 5 3 9 5 8 11 6 9 9 10 1 7 24
52 46 30 10 6 9 16 8 1 4 8 7 1 2 3 5 10 10 12 9 5 5 8 11 17 12 16 13 14 13 5 3 4 4 8 9 11 10 9 12 12 8 2 7 8
53 41 15 11 5 14 10 2 4 11 11 16 14 12 5 9 11 11 4 4 2 7 3 4 7 5 15 11 10 9 2 2 9 6 9 11 17 8 9 14 20 8 9 8 9
52 32 10 13 5 12 3 3 4 7 8 11 11 7 4 11 11 9 7 6 7 8 4 5 4 11 10 14 7 7 5 6 2 6 3 3 8 7 19 21 21 19 19 20 24
37 12 9 11 10 10 0 7 11 9 9 9 5 8 5 10 8 9 5 7 5 12 7 8 6 7 12 11 6 11 11 5 5 4 7 3 4 2 10 14 15 19 18 20 23
11 4 11 20 9 1 4 4 5 10 11 7 6 6 5 7 8 5 6 9 10 8 6 6 2 6 8 7 15 13 7 5 3 6 3 2 5 5 7 7 13 14 17 17 20
12 4 18 21 2 2 2 5 10 8 12 7 2 3 4 9 5 3 3 4 3 5 4 3 2 3 11 10 15 13 13 7 2 6 3 1 5 5 8 8 10 9 11 15 18
7 4 2 13 4 4 8 10 7 11 9 6 7 11 13 2 2 7 6 8 7 2 3 4 3 5 7 6 4 5 13 9 3 2 3 2 6 6 9 9 8 9 13 13 17
4 4 4 3 3 7 7 5 8 7 6 1 3 5 6 5 6 3 7 2 6 8 8 5 2 3 4 9 13 14 16 15 4 1 5 5 11 11 5 6 4 3 6 7 4
3 3 4 4 7 10 5 8 11 3 7 7 6 11 6 5 6 5 7 8 8 4 4 4 2 6 9 15 12 16 16 15 12 12 8 8 10 11 4 7 8 10 10 11 9
3 3 4 10 8 9 5 5 10 9 9 6 6 13 11 3 4 6 8 6 3 2 2 2 3 5 5 15 13 13 16 13 13 13 11 14 12 12 8 7 8 8 8 9 10
13 12 3 6 7 7 4 3 4 6 5 7 11 6 7 9 7 7 6 5 6 5 3 8 5 2 5 8 12 9 7 12 11 11 7 10 8 7 10 10 6 9 11 13 12
Wind_Direction
359 355 351 347 342 338 335 332 329 322 315 311 308 310 307 309 311 300 241 236 243 242 261 283 289 252 262 261 253 246 243 250 255 269 280 291 319 303 273 302 341 102 147 185 190
360 357 353 349 343 339 335 333 332 328 319 312 306 303 307 320 316 254 260 233 257 259 236 249 261 214 253 266 255 202 227 244 244 264 278 291 309 285 247 308 64 112 120 148 170
359 358 354 350 347 345 337 333 334 333 328 324 312 304 314 339 293 251 315 215 241 252 249 246 256 223 218 246 249 249 242 252 260 264 279 295 315 323 287 196 307 281 137 157 152
359 360 356 353 352 352 344 337 336 332 327 319 313 306 320 8 311 298 154 191 213 242 208 220 268 275 225 236 249 237 247 248 257 266 280 288 296 314 322 237 122 127 181 149 152
359 358 358 353 352 352 350 343 337 333 329 319 308 297 333 240 248 260 178 186 199 176 207 217 232 247 227 240 255 256 257 260 263 246 260 277 283 275 298 300 319 332 161 158 159
358 357 357 351 348 347 350 342 329 322 320 313 298 270 206 259 254 196 196 202 216 197 228 230 245 249 259 245 241 250 258 263 271 265 256 276 280 323 299 306 314 0 309 155 171
357 355 354 352 340 339 334 340 329 316 314 306 284 179 259 242 263 193 184 207 230 218 218 242 247 267 302 300 266 272 280 281 278 278 272 269 283 282 272 293 296 303 299 293 173
356 353 351 348 339 328 325 329 327 319 313 306 171 145 249 264 287 253 237 226 248 244 251 250 257 244 261 281 306 303 295 266 279 266 269 233 261 261 275 264 267 277 282 267 265
355 352 348 344 338 323 313 316 316 297 302 276 182 204 261 288 222 227 236 219 240 237 250 251 253 256 293 253 301 284 256 263 275 248 252 241 254 244 232 248 250 259 256 261 249
355 351 346 342 336 324 312 315 312 271 282 280 266 267 259 235 221 222 216 239 238 192 252 237 261 230 263 192 228 241 252 247 248 258 257 245 247 253 230 225 236 242 243 238 249
354 351 345 339 334 326 319 337 340 292 236 218 204 234 290 277 131 170 238 243 259 198 226 228 211 240 233 224 244 265 265 273 280 279 277 273 290 260 245 226 206 238 260 242 230
351 350 345 337 331 318 305 256 15 288 292 236 245 247 257 267 263 238 207 223 214 236 233 252 219 237 239 233 230 241 255 272 281 284 281 296 291 286 297 263 198 226 277 262 237
349 346 344 334 327 319 267 258 326 317 276 287 243 238 236 240 235 240 220 200 217 224 246 226 244 221 236 247 251 251 238 252 254 287 296 328 292 294 287 278 290 280 243 269 263
346 342 342 336 327 327 291 357 337 7 302 267 214 216 223 204 237 231 244 172 213 241 244 238 245 255 259 240 232 234 245 271 270 248 247 209 282 289 278 268 269 252 267 261 268
342 340 338 335 293 303 336 341 342 2 319 164 125 140 174 151 280 191 81 126 252 279 278 268 273 275 276 273 275 253 245 249 245 264 293 283 261 262 277 282 263 246 244 254 259
339 336 334 337 282 282 326 328 316 308 250 246 135 171 227 188 229 95 129 136 232 268 277 273 278 268 279 288 288 297 280 248 253 232 262 233 242 263 257 256 277 284 276 271 239
337 334 323 274 234 337 341 322 313 226 313 356 14 150 199 240 241 206 184 196 194 297 270 271 256 272 320 309 309 288 318 287 302 267 252 215 248 260 263 272 259 265 113 68 58
336 335 333 282 280 313 328 341 237 263 304 358 358 355 358 336 298 309 352 328 69 33 318 325 293 15 358 17 335 314 21 272 236 229 252 232 245 253 9 352 6 216 147 66 53
335 340 298 277 259 317 14 260 246 8 359 349 329 304 335 2 360 18 359 29 43 40 27 342 266 335 353 360 354 324 327 300 12 318 288 229 318 305 27 19 17 30 35 27 4
333 316 302 4 338 301 238 253 299 37 353 348 345 16 345 0 354 4 340 39 79 51 39 15 317 321 351 337 326 10 328 357 353 325 271 260 249 281 29 35 26 14 18 10 10
324 308 16 346 330 57 233 289 30 26 16 6 360 327 355 352 355 348 333 56 28 34 38 32 346 338 2 7 329 331 330 319 199 217 241 332 284 127 99 69 71 33 14 10 357
333 310 348 352 348 292 41 41 348 30 29 350 358 46 358 6 5 336 296 14 62 38 11 50 291 302 305 306 286 271 279 275 221 281 300 161 264 55 84 52 45 39 42 12 359
316 267 52 27 38 1 11 342 5 31 23 5 340 8 348 339 348 348 322 133 149 90 63 3 348 340 325 307 7 28 337 322 322 21 276 245 270 193 113 80 57 26 11 14 353
296 317 348 357 69 19 356 334 346 336 286 343 295 304 315 322 293 264 273 26 90 101 98 77 25 223 244 280 289 304 318 315 316 304 276 272 311 318 77 101 124 175 164 157 228
237 339 11 324 342 320 341 306 293 0 358 8 344 307 244 253 293 309 356 19 41 145 94 102 250 294 301 311 311 317 311 316 325 316 297 283 292 301 290 200 219 228 210 199 226
331 352 353 295 304 301 299 354 23 26 15 319 317 313 324 8 26 327 16 15 355 164 92 58 260 297 310 306 303 293 300 297 285 281 292 311 267 274 274 220 214 218 187 203 198
2 344 306 279 291 292 304 56 346 21 301 20 352 341 340 11 345 331 310 286 275 289 248 172 179 206 261 280 302 300 287 303 320 309 291 305 288 330 336 319 256 226 196 210 207